SL-16 DEB, 29098

Orbit data source: Space-Track

SL-16 DEB, 29098 is space debris in LEO originally from a launch on Fri, 26 Mar 1993 UTC launched from the Tyuratam Missile And Space Complex (TTMTR). Debris objects in space refer to the collection of defunct objects orbiting the Earth. Examples of debris include non-operational satellites, rocket bodies, and fragments generated from explosions, collisions, or faulty payload assembly.

Loading next visibility...
Identifier
29098, 1993-016AM
Orbit
LEO
Country
Flag of CISCIS
Related business
Manufacturer
Unknown
Mission
Spacecraft
Bus & Motor
Unknown
Mass
Unknown
Launch date (UTC)
1993-03-26 (33 years ago)
Launch vehicle
Unknown
Launch site
Tyuratam Missile And Space Complex (TTMTR)
Object type
Payload
Rocket body
Debris
Shape & HBR
Unknown shape, 0.1 m
Radar Cross Section
Small (<0.1 m²)

Expand to show TLE details & history
Last TLE update: 1 month ago

TLE from 1 month ago
0 SL-16 DEB
1 29098U 93016AM  26081.42055821  .00001325  00000-0  65412-3 0  9993
2 29098  70.9271 349.8516 0081845 328.2553 150.4858 14.17568700658498
Epoch: 2026-03-22T10:05Z
TLE epoch observation values (Epoch: 2026-03-22T10:05:36.229Z)
Latitude
55.70016°
Longitude
168.24528°
Altitude
893.792 km
Speed
7.384 km/s
True Right ascension
09h 18m 17s
True Declination
55° 32' 34"
Sunlit
Object was in daylight at epoch
Visualization orbit readout
Latitude
Unknown
Longitude
Unknown
Altitude
Unknown
Speed
Unknown
Apparent Right ascension
Unknown
Apparent Declination
Unknown
Sunlit
N/A
Visualization observer readout
Local Sidereal Time
21:51:15
Azimuth
Unknown
Elevation
Unknown
Doppler factor
Unknown
Orbital elements
Apogee altitude
890.524 km
Perigee altitude
772.509 km
Semi-major axis
7,209.653 km
Eccentricity
0.00818
Inclination
70.9271°
RAAN
349.8516°
Arg. of periapsis
328.2553°
True anomaly
150.94375°
Mean anomaly
150.4858°
Eccentric anomaly
150.71518°
Mean motion
3.54545 °/min
Orbital period
101.54 mins
BSTAR
0.00065412
Loading maneuver chart data...
Computing Atmospheric mass density...
Loading historical data...
Loading historical data...
Loading historical data...
Loading historical data...
Loading historical data...
Loading historical data...
Loading historical data...

Documentation

Showing up to 5 results
|